SCP
0 0 0 0 0 0 0 0 0 0 0 0 0 0 0 0 0 0 0 0 0 0 0 0 0 0 0 0 0 0 0 0 0 0 0 0 0 0
0 0 0 0 0 0 0 0 0 0 0 0 0 0 0 0 0 0 0 0 0 0 0 0 0 0 0 0 0 0 0 0 0 0 0 0 0 0
0 0 0 0 0 0 0 0 0 0 0 0 0 0 0 0 0 0 0 0 0 0 0 0 0 0 0 0 0 0 0 0 0 0 0 0 0 0
0 0 0 0 0 0 0 0 0 0 0 0 0 0 0 0 0 0 0 0 0 0 0 0 0 0 0 0 0 0 0 0 0 0 0 0 0 0
0 0 0 0 0 0 0 0 0 0 0 0 0 0 0 0 0 0 0 0 0 0 0 0 0 0 0 0 0 0 0 0 0 0 0 0 0 0
0 0 0 0 0 0 0 0 0 0 0 0 0 0 0 0 0 0 0 0 0 0 0 0 0 0 0 0 0 0 0 0 0 0 0 0 0 0
0 0 0 0 0 0 0 0 0 0 0 0 0 0 0 0 0 0 0 0 0 0 0 0 0 0 0 0 0 0 0 0 0 0 0 0 0 0
0 0 0 0 0 0 0 0 0 0 0 0 0 0 0 0 0 0 0 0 0 0 0 0 0 0 0 0 0 0 0 0 0 0 0 0 0 0
0 0 0 0 0 0 0 0 0 0 0 0 0 0 0 0 0 0 0 0 0 0 0 0 0 0 0 0 0 0 0 0 0 0 0 0 0 0
0 0 0 0 0 0 0 0 0 0 0 0 0 0 0 0 0 0 0 0 0 0 0 0 0 0 0 0 0 0 0 0 0 0 0 0 0 0
0 0 0 0 0 0 0 0 0 0 0 0 0 0 0 0 0 0 0 0 0 0 0 0 0 0 0 0 0 0 0 0 0 0 0 0 0 0
0 0 0 0 0 0 0 0 0 0 0 0 0 0 0 0 0 0 0 0 0 0 0 0 0 0 0 0 0 0 0 0 0 0 0 0 0 0
0 0 0 0 0 0 0 0 0 0 0 0 0 0 0 0 0 0 0 0 0 0 0 0 0 0 0 0 0 0 0 0 0 0 0 0 0 0
0 0 0 0 0 0 0 0 0 0 0 0 0 0 0 0 0 0 0 0 0 0 0 0 0 0 0 0 0 0 0 0 0 0 0 0 0 0
0 0 0 0 0 0 0 0 0 0 0 0 0 0 0 0 0 0 0 0 0 0 0 0 0 0 0 0 0 0 0 0 0 0 0 0 0 0
0 0 0 0 0 0 0 0 0 0 0 0 0 0 0 0 0 0 0 0 0 0 0 0 0 0 0 0 0 0 0 0 0 0 0 0 0 0
0 0 0 0 0 0 0 0 0 0 0 0 0 0 0 0 0 0 0 0 0 0 0 0 0 0 0 0 0 0 0 0 0 0 0 0 0 0
0 0 0 0 0 0 0 0 0 0 0 0 0 0 0 0 0 0 0 0 0 0 0 0 0 0 0 0 0 0 0 0 0 0 0 0 0 0
0 0 0 0 0 0 0 0 0 0 0 0 0 0 0 0 0 0 0 0 0 0 0 0 0 0 0 0 0 0 0 0 0 0 0 0 0 0
0 0 0 0 0 0 0 0 0 0 0 0 0 0 0 0 0 0 0 0 0 0 0 0 0 0 0 0 0 0 0 0 0 0 0 0 0 0
0 0 0 0 0 0 0 0 0 0 0 0 0 0 0 0 0 0 0 0 0 0 0 0 0 0 0 0 0 0 0 0 0 0 0 0 0 0
0 0 0 0 0 0 0 0 0 0 0 0 0 0 0 0 0 0 0 0 0 0 0 0 0 0 0 0 0 0 0 0 0 0 0 0 0 0
0 0 0 0 0 0 0 0 0 0 0 0 0 0 0 0 0 0 0 0 0 0 0 0 0 0 0 0 0 0 0 0 0 0 0 0 0 0
Wind_Speed
5 5 4 3 3 3 3 4 4 3 4 3 2 3 3 3 5 5 5 7 8 8 8 9 9 10 10 10 11 11 10 9 8 8 7 7 7 6
4 5 4 4 3 3 4 4 4 4 4 3 3 3 3 4 5 6 6 8 9 9 9 9 10 11 11 11 11 11 11 10 10 9 9 8 7 7
5 5 6 5 4 4 4 4 4 4 5 4 3 3 3 4 4 4 4 5 5 8 9 10 10 11 11 11 11 11 11 11 10 10 9 9 8 8
6 5 6 5 5 4 4 5 5 5 5 5 3 3 4 4 4 4 4 5 5 7 9 10 10 10 10 10 11 11 11 11 10 10 10 9 9 9
6 6 6 6 6 5 5 5 5 5 5 5 4 3 3 3 3 3 4 3 4 5 7 8 9 10 10 10 11 10 10 10 10 10 10 9 9 9
6 6 7 7 7 7 6 6 5 5 4 4 4 3 3 3 3 3 3 3 3 3 4 5 6 9 9 10 10 11 10 10 10 10 10 10 9 9
5 6 6 7 8 7 6 5 5 5 4 4 4 3 4 3 4 3 4 3 3 3 3 3 4 4 5 7 9 11 11 11 11 11 10 10 10 9
5 5 5 6 7 8 9 8 8 7 6 5 4 5 5 5 4 4 3 3 3 3 3 3 4 5 5 5 8 10 11 11 11 11 11 11 10 10
5 4 4 4 5 5 6 7 8 9 10 7 7 7 7 6 5 5 5 5 5 3 3 4 3 4 4 5 9 10 11 11 11 11 11 11 11 10
4 5 5 5 5 5 5 5 5 6 7 7 7 7 7 6 6 5 5 4 3 2 4 3 3 4 4 4 7 10 11 11 11 10 10 10 10 9
4 4 5 5 6 5 4 5 5 5 5 7 7 7 7 7 6 4 4 4 4 3 3 3 3 2 3 3 4 8 9 9 9 9 9 9 9 8
3 4 5 5 5 5 4 4 5 5 3 3 3 4 4 5 7 7 6 5 3 3 4 4 3 2 2 2 3 3 5 6 8 8 8 9 8 5
3 3 4 5 5 5 5 5 6 5 3 3 3 3 3 3 4 5 6 6 5 4 4 4 3 3 3 2 2 3 4 3 4 4 6 7 8 7
3 3 4 5 5 5 4 4 5 3 2 2 2 3 3 3 3 4 5 5 5 5 5 5 4 4 4 3 3 2 3 3 4 4 3 4 6 8
3 5 5 4 4 3 4 4 3 2 2 2 3 3 3 3 2 2 2 3 3 4 4 5 5 4 4 4 3 3 2 3 4 4 4 4 4 4
2 3 3 3 3 3 3 2 2 2 3 3 3 3 2 2 2 2 2 2 2 2 3 4 5 5 4 4 4 4 3 3 3 4 3 3 3 4
1 1 1 1 1 2 2 2 2 2 2 2 3 3 2 2 2 2 2 2 3 3 2 1 2 2 4 4 4 5 4 4 4 4 3 3 3 4
2 1 2 2 3 3 2 2 2 2 3 3 3 3 3 3 2 2 2 3 3 3 3 3 3 2 1 2 5 6 4 4 3 4 4 3 4 3
2 2 3 3 3 3 3 3 3 2 2 3 3 3 3 3 3 3 2 2 3 3 3 3 4 4 4 3 2 5 5 3 3 3 3 4 4 3
2 3 3 3 3 3 3 3 3 2 2 3 3 3 3 3 3 3 3 3 3 3 3 3 4 4 5 4 2 2 4 5 4 3 2 2 2 2
3 3 4 3 3 4 4 3 3 3 3 3 3 3 3 3 3 3 3 3 3 3 3 3 3 4 2 2 2 2 1 3 4 3 3 3 2 2
3 3 3 4 3 3 3 3 3 3 3 3 3 3 2 3 3 3 3 3 3 3 3 3 2 2 3 4 4 3 2 1 1 2 3 4 4 4
4 4 3 3 3 3 3 3 3 3 3 3 3 2 3 3 3 3 3 3 3 3 3 2 2 2 2 3 3 3 3 2 1 0 1 1 4 5
Wind_Direction
222 217 217 222 215 214 206 198 199 235 255 245 242 238 232 230 226 222 226 224 221 220 220 226 232 232 229 225 220 217 213 210 211 214 218 223 224 224
222 218 221 223 219 214 212 216 211 217 245 242 241 248 247 248 233 223 224 224 225 224 224 223 226 228 228 224 221 216 211 208 209 212 215 218 221 224
227 220 226 219 216 216 213 213 216 212 238 257 247 244 245 246 246 231 228 227 230 229 229 226 227 227 225 222 219 215 211 208 209 213 215 217 221 223
234 227 231 223 221 219 215 219 220 215 221 245 250 246 247 243 243 236 238 233 233 234 229 228 228 226 222 219 217 213 211 209 209 211 214 217 220 220
235 231 231 223 228 226 221 223 223 222 216 224 248 250 252 247 247 247 242 242 241 237 230 229 228 224 218 216 215 213 212 211 210 210 211 213 215 217
237 234 232 223 225 227 226 224 220 221 218 222 239 247 247 245 231 234 245 238 243 242 240 233 227 222 218 215 215 214 213 211 211 211 211 212 214 215
240 236 236 233 230 226 226 220 213 217 219 222 230 241 243 230 227 222 232 242 250 231 232 231 223 222 221 219 218 215 213 213 212 210 210 212 214 217
242 244 240 234 235 235 232 226 218 214 217 219 228 232 242 232 226 219 221 229 246 209 209 230 217 225 225 222 218 213 212 212 212 210 210 212 215 217
235 240 247 245 236 237 237 237 234 226 217 214 220 228 233 227 215 220 221 225 237 213 196 235 224 232 232 223 214 213 213 213 213 211 212 213 216 217
240 236 239 250 243 235 237 239 239 235 227 223 223 230 233 225 216 219 218 226 244 229 203 228 231 235 236 227 216 212 209 209 210 210 210 212 214 218
255 249 240 243 247 236 229 237 250 256 247 232 229 234 232 225 210 196 197 200 226 229 200 215 231 238 240 236 220 205 202 203 206 208 208 208 210 215
273 267 255 248 249 234 224 226 241 255 255 250 239 238 229 217 207 204 203 202 209 225 196 194 205 203 245 237 221 201 198 201 203 209 210 210 207 212
263 270 267 255 250 238 226 226 235 243 244 236 239 240 231 220 218 211 206 204 206 224 194 182 199 200 214 234 234 211 200 199 198 207 210 211 208 205
254 265 264 256 250 241 233 237 236 237 229 225 230 234 233 233 231 225 217 218 224 226 203 187 199 199 200 219 234 209 201 202 201 208 211 203 209 212
256 262 266 261 258 249 242 238 221 213 219 222 232 240 239 235 229 221 212 207 222 227 212 207 204 203 208 219 224 220 212 208 200 205 211 212 215 211
263 279 280 268 257 254 253 241 224 216 212 225 239 247 244 227 220 208 210 196 205 245 232 216 206 200 211 217 216 227 222 206 197 203 208 217 216 213
229 265 283 284 274 264 259 245 224 206 211 223 229 234 235 231 230 211 206 204 206 222 239 216 198 198 210 209 214 223 217 211 210 198 193 215 226 223
188 225 244 244 250 252 250 249 235 222 221 226 229 225 223 223 232 228 213 207 218 223 217 199 164 148 186 240 222 218 214 213 206 197 196 210 233 231
200 231 241 245 247 245 242 240 239 235 224 225 229 223 219 222 225 228 225 215 220 225 219 197 183 183 206 238 232 207 206 202 193 200 204 212 229 235
230 243 248 247 248 246 243 242 241 235 226 228 229 223 217 217 222 226 225 223 222 221 219 209 203 200 208 228 236 234 210 207 200 205 210 209 226 228
246 249 251 250 251 248 245 241 236 231 228 226 224 220 218 216 221 226 226 216 216 215 223 236 231 200 196 185 200 237 239 210 206 202 199 202 218 223
256 255 254 252 251 249 247 240 234 231 225 223 225 221 218 219 220 221 219 219 223 220 230 239 211 187 192 197 213 232 241 206 170 190 222 220 213 214
260 256 252 251 248 249 245 242 237 231 224 220 219 218 218 221 225 220 220 224 222 217 212 216 206 202 203 196 210 224 224 222 195 127 302 261 211 218